When you browse on this site, cookies collect data to enhance your experience and personalize the content and advertising you see.
Visit our Privacy Policy to learn more. By continuing to use the site, you agree to this use of cookies and data.
  • In Hungary
  • List of Countries
  • For 7 days
  • Water Temperature
  • Satellite Maps
  • Weather Map
  • News
  • Weather Widgets
  • user-avatar
    Login

    Hourly Weather Sikiya

    Today, 22 January, Tuesday

    Time Temperature Precipitation Wind Pressure Humidity
    00:00 -15°C° 0.3 mm 6 mps 746 mmHg 91%
    01:00 -14°C° 0.3 mm 6 mps 746 mmHg 90%
    02:00 -13°C° 0.2 mm 5 mps 745 mmHg 91%
    03:00 -13°C° 0.2 mm 5 mps 745 mmHg 91%
    04:00 -14°C° 0 mm 4 mps 744 mmHg 92%
    05:00 -13°C° 0.1 mm 3 mps 743 mmHg 93%
    06:00 -13°C° 0.1 mm 3 mps 743 mmHg 94%
    07:00 -12°C° 0.1 mm 2 mps 743 mmHg 95%
    08:00 -13°C° 0 mm 2 mps 743 mmHg 95%
    09:00 -13°C° 0 mm 2 mps 743 mmHg 95%
    10:00 -13°C° 0 mm 2 mps 743 mmHg 95%
    11:00 -14°C° 0 mm 3 mps 744 mmHg 95%
    12:00 -14°C° 0 mm 3 mps 744 mmHg 94%
    13:00 -13°C° 0 mm 3 mps 744 mmHg 94%
    14:00 -15°C° 0 mm 4 mps 745 mmHg 94%
    15:00 -16°C° 0 mm 4 mps 745 mmHg 94%
    16:00 -16°C° 0 mm 4 mps 746 mmHg 94%
    17:00 -18°C° 0 mm 4 mps 746 mmHg 95%
    18:00 -20°C° 0 mm 4 mps 747 mmHg 95%
    19:00 -23°C° 0 mm 4 mps 747 mmHg 96%
    20:00 -23°C° 0 mm 4 mps 748 mmHg 97%
    21:00 -24°C° 0 mm 4 mps 748 mmHg 97%
    22:00 -24°C° 0 mm 3 mps 749 mmHg 98%
    23:00 -24°C° 0 mm 3 mps 749 mmHg 98%

    Tomorrow, 23 January, Wednesday

    Time Temperature Precipitation Wind Pressure Humidity
    00:00 -25°C° 0 mm 3 mps 749 mmHg 98%
    01:00 -26°C° 0 mm 3 mps 750 mmHg 98%
    02:00 -26°C° 0 mm 3 mps 750 mmHg 98%
    03:00 -27°C° 0 mm 3 mps 751 mmHg 98%
    04:00 -27°C° 0 mm 3 mps 751 mmHg 98%
    05:00 -27°C° 0 mm 3 mps 752 mmHg 98%
    06:00 -29°C° 0 mm 3 mps 752 mmHg 98%
    07:00 -29°C° 0 mm 3 mps 752 mmHg 98%
    08:00 -29°C° 0 mm 3 mps 753 mmHg 98%
    09:00 -29°C° 0 mm 3 mps 753 mmHg 97%
    10:00 -29°C° 0 mm 3 mps 754 mmHg 97%
    11:00 -27°C° 0 mm 3 mps 754 mmHg 97%
    12:00 -26°C° 0 mm 3 mps 755 mmHg 96%
    13:00 -25°C° 0 mm 3 mps 755 mmHg 95%
    14:00 -25°C° 0 mm 3 mps 755 mmHg 95%
    15:00 -25°C° 0 mm 3 mps 756 mmHg 96%
    16:00 -25°C° 0 mm 2 mps 756 mmHg 96%
    17:00 -26°C° 0 mm 3 mps 756 mmHg 96%
    18:00 -27°C° 0 mm 3 mps 757 mmHg 96%
    19:00 -29°C° 0 mm 3 mps 757 mmHg 97%
    20:00 -29°C° 0 mm 3 mps 758 mmHg 97%
    21:00 -29°C° 0 mm 3 mps 758 mmHg 97%
    22:00 -29°C° 0 mm 3 mps 758 mmHg 97%
    23:00 -27°C° 0 mm 3 mps 759 mmHg 97%

    Day after tomorrow, 24 January, Thursday

    Time Temperature Precipitation Wind Pressure Humidity
    00:00 -27°C° 0 mm 3 mps 759 mmHg 97%
    01:00 -27°C° 0 mm 3 mps 759 mmHg 97%
    02:00 -27°C° 0 mm 3 mps 760 mmHg 97%
    03:00 -27°C° 0 mm 3 mps 760 mmHg 97%
    04:00 -27°C° 0 mm 3 mps 760 mmHg 97%
    05:00 -27°C° 0 mm 3 mps 761 mmHg 97%
    06:00 -26°C° 0 mm 2 mps 761 mmHg 97%
    07:00 -26°C° 0 mm 2 mps 761 mmHg 97%
    08:00 -27°C° 0 mm 3 mps 761 mmHg 97%
    09:00 -27°C° 0 mm 3 mps 761 mmHg 97%
    10:00 -27°C° 0 mm 3 mps 762 mmHg 96%
    11:00 -25°C° 0 mm 3 mps 762 mmHg 95%
    12:00 -24°C° 0 mm 3 mps 761 mmHg 93%
    13:00 -23°C° 0 mm 4 mps 761 mmHg 92%
    14:00 -23°C° 0 mm 4 mps 761 mmHg 91%
    15:00 -23°C° 0 mm 4 mps 761 mmHg 91%
    16:00 -23°C° 0 mm 4 mps 761 mmHg 90%
    17:00 -23°C° 0 mm 4 mps 760 mmHg 89%
    18:00 -22°C° 0 mm 5 mps 760 mmHg 88%
    19:00 -22°C° 0 mm 5 mps 760 mmHg 87%
    20:00 -22°C° 0.1 mm 6 mps 759 mmHg 89%
    21:00 -21°C° 0.1 mm 6 mps 758 mmHg 90%
    22:00 -20°C° 0.1 mm 7 mps 757 mmHg 91%
    23:00 -20°C° 0.2 mm 7 mps 757 mmHg 91%

    25 January, Friday

    Time Temperature Precipitation Wind Pressure Humidity
    00:00 -19°C° 0.2 mm 7 mps 756 mmHg 91%
    01:00 -18°C° 0.2 mm 7 mps 755 mmHg 90%
    02:00 -18°C° 0.3 mm 7 mps 755 mmHg 91%
    03:00 -17°C° 0.3 mm 6 mps 754 mmHg 91%
    04:00 -17°C° 0.3 mm 6 mps 754 mmHg 91%
    05:00 -17°C° 0.2 mm 6 mps 753 mmHg 91%
    06:00 -15°C° 0.2 mm 5 mps 753 mmHg 91%
    07:00 -15°C° 0.2 mm 5 mps 753 mmHg 91%
    08:00 -17°C° 0.1 mm 5 mps 753 mmHg 91%
    09:00 -16°C° 0.1 mm 4 mps 753 mmHg 92%
    10:00 -16°C° 0.1 mm 4 mps 754 mmHg 92%
    11:00 -16°C° 0 mm 4 mps 754 mmHg 91%
    12:00 -16°C° 0 mm 4 mps 754 mmHg 91%
    13:00 -16°C° 0 mm 4 mps 754 mmHg 91%
    14:00 -16°C° 0 mm 4 mps 755 mmHg 92%
    15:00 -16°C° 0 mm 3 mps 755 mmHg 93%
    16:00 -16°C° 0 mm 2 mps 755 mmHg 94%
    17:00 -17°C° 0 mm 2 mps 756 mmHg 96%
    18:00 -19°C° 0 mm 2 mps 756 mmHg 97%
    19:00 -20°C° 0 mm 2 mps 757 mmHg 98%
    20:00 -21°C° 0 mm 2 mps 757 mmHg 99%
    21:00 -21°C° 0 mm 2 mps 757 mmHg 99%
    22:00 -23°C° 0 mm 2 mps 758 mmHg 99%
    23:00 -20°C° 0 mm 1 mps 758 mmHg 99%

    26 January, Saturday

    Time Temperature Precipitation Wind Pressure Humidity
    00:00 -21°C° 0 mm 1 mps 758 mmHg 99%
    01:00 -21°C° 0 mm 1 mps 758 mmHg 99%
    02:00 -21°C° 0 mm 1 mps 758 mmHg 98%
    03:00 -22°C° 0 mm 1 mps 758 mmHg 98%
    04:00 -22°C° 0 mm 1 mps 758 mmHg 97%
    05:00 -21°C° 0 mm 1 mps 758 mmHg 97%
    06:00 -21°C° 0 mm 1 mps 758 mmHg 96%
    07:00 -20°C° 0 mm 1 mps 758 mmHg 95%
    08:00 -20°C° 0 mm 1 mps 758 mmHg 95%
    09:00 -21°C° 0 mm 2 mps 758 mmHg 95%
    10:00 -21°C° 0 mm 2 mps 758 mmHg 94%
    11:00 -20°C° 0.1 mm 2 mps 758 mmHg 94%
    12:00 -20°C° 0.1 mm 2 mps 758 mmHg 94%
    13:00 -21°C° 0.1 mm 3 mps 757 mmHg 94%
    14:00 -21°C° 0.1 mm 3 mps 757 mmHg 94%
    15:00 -21°C° 0.1 mm 3 mps 757 mmHg 94%
    16:00 -21°C° 0.1 mm 3 mps 757 mmHg 94%
    17:00 -22°C° 0 mm 3 mps 757 mmHg 94%
    18:00 -23°C° 0 mm 4 mps 757 mmHg 94%
    19:00 -24°C° 0 mm 4 mps 757 mmHg 93%
    20:00 -24°C° 0 mm 4 mps 756 mmHg 92%
    21:00 -25°C° 0 mm 4 mps 756 mmHg 91%
    22:00 -25°C° 0 mm 4 mps 756 mmHg 90%
    23:00 -25°C° 0 mm 4 mps 756 mmHg 89%

    27 January, Sunday

    Time Temperature Precipitation Wind Pressure Humidity
    00:00 -25°C° 0 mm 4 mps 755 mmHg 88%
    01:00 -25°C° 0 mm 4 mps 755 mmHg 87%
    02:00 -26°C° 0 mm 5 mps 755 mmHg 88%
    03:00 -25°C° 0 mm 5 mps 754 mmHg 88%
    04:00 -25°C° 0 mm 5 mps 754 mmHg 88%
    05:00 -25°C° 0 mm 5 mps 753 mmHg 89%
    06:00 -25°C° 0 mm 5 mps 753 mmHg 89%
    07:00 -25°C° 0 mm 5 mps 752 mmHg 90%
    08:00 -25°C° 0.2 mm 5 mps 751 mmHg 92%
    09:00 -26°C° 0.2 mm 6 mps 751 mmHg 93%
    10:00 -26°C° 0.2 mm 6 mps 750 mmHg 95%
    11:00 -24°C° 0.5 mm 5 mps 750 mmHg 95%
    12:00 -22°C° 0.5 mm 5 mps 749 mmHg 95%
    13:00 -22°C° 0.5 mm 5 mps 749 mmHg 96%
    14:00 -21°C° 0.5 mm 5 mps 748 mmHg 96%
    15:00 -19°C° 0.5 mm 4 mps 748 mmHg 96%
    16:00 -19°C° 0.5 mm 4 mps 747 mmHg 96%
    17:00 -18°C° 0.3 mm 4 mps 747 mmHg 96%
    18:00 -18°C° 0.3 mm 4 mps 747 mmHg 96%
    19:00 -17°C° 0.3 mm 3 mps 746 mmHg 96%
    20:00 -17°C° 0.2 mm 3 mps 746 mmHg 96%
    21:00 -17°C° 0.2 mm 3 mps 746 mmHg 96%
    22:00 -17°C° 0.2 mm 3 mps 746 mmHg 96%
    23:00 -17°C° 0.1 mm 3 mps 745 mmHg 96%
    Show more